Ciudad Obregón International Airport

Jump to: basic info | weather | frequencies | runways | comments

Related pages: nearby airports | nearby navaids | notams | map

Basic information (top)

Codes: CEN MMCN
Location: lon 27.392599, lat -109.833000, elev 243 ft / 74 m msl
Status: medium_airport
Scheduled airline service: yes
Links: Wikipedia Mobile

Weather (top)

Current conditions (rec'd 2014/10/24 17:44Z):

MMCN 241744Z 20006KT 10SM SKC 32/21 A2994 RMK SLP139 FULYR SW

Airport forecast (rec'd 2014/10/22 06:18Z):

TAF TAF MMCN 220515Z 2206/2306 30005KT P6SM SKC 
      BECMG 2218/2219 27010KT 
     FM230100 27005KT P6SM SKC

Frequencies (top)

Verify before use: may be inaccurate or out of date.

APP: 121.3 MHz (APP)
ATIS: 127.6 MHz (ATIS)
TWR: 118.3 MHz (OBREGON TWR)

Runways (top)

13/31: 7,546 x 148 ft (2,300 x 45 m) — paved — lighted

Latest comments (top)

No comments yet for Ciudad Obregón International Airport

More... (top)

See also NOTAMs and nearby airports and navaids, or visit the Ciudad Obregón International Airport page at the main OurAirports website..